Content
SEND FEEDBACK

Daily
Averages
Monthly
Summary
United States of America

WALNUT GROVE, ALABAMA


Home > North America > United States > Alabama
Elevation: 85 feet     Latitude: 34 04N     Longitude: 086 19W

WEATHER
 
SELECT A DAY
Number of Records: 205,333;   Date Range: 3/15/06 - 8/30/14
 
SHARE

PRINT THIS DATA

[ ← Previous Day ]
WEATHER ALMANAC - MARCH 15, 2014
[ Next Day → ]
[ °C ]   °F
Weather ElementAverageHighLow
Barometer30.06 in30.13 in (9:55 am)29.96 in (11:55 pm)
Wind Speed3.6 mph8.1 mph (3:35 pm)
Weather ElementAverage
Visibility10 mi
Wind DirectionSSE (174 °)

Weather ElementTotal
Precipitation---
Heating Degree Days65 (Base 65)
Averaged from 70 records on March 15, 2014
WEATHER CONDITIONS BREAKOUT
WIND DIRECTION BREAKOUT
WEATHER BY HOUR - MARCH 15, 2014
[ °C ]   °F
Local TimeTemperatureDewpointHumidityBarometerVisibilityWind DirectionWind SpeedGust SpeedPrecipitationEventsConditions
12:35 AM0.0 °F0.0 °F30.09 in10.0 miCalmClear
12:55 AM0.0 °F0.0 °F30.08 in10.0 miCalmClear
1:15 AM0.0 °F0.0 °F30.08 in10.0 miCalmScattered Clouds
1:35 AM0.0 °F0.0 °F30.08 in10.0 miCalmClear
1:55 AM0.0 °F0.0 °F30.08 in10.0 miSSW (200°)3.5 mphClear
2:15 AM0.0 °F0.0 °F30.08 in10.0 miSSW (210°)4.6 mphClear
2:35 AM0.0 °F0.0 °F30.08 in10.0 miSSW (200°)3.5 mphMostly Cloudy
2:55 AM0.0 °F0.0 °F30.08 in10.0 miSSW (210°)3.5 mphOvercast
3:15 AM0.0 °F0.0 °F30.08 in10.0 miSW (230°)3.5 mphScattered Clouds
3:35 AM0.0 °F0.0 °F30.08 in10.0 miWSW (240°)4.6 mphScattered Clouds
3:55 AM0.0 °F0.0 °F30.08 in10.0 miWSW (240°)4.6 mphScattered Clouds
4:15 AM0.0 °F0.0 °F30.08 in10.0 miSW (230°)4.6 mphMostly Cloudy
4:35 AM0.0 °F0.0 °F30.08 in10.0 miWSW (240°)4.6 mphOvercast
4:55 AM0.0 °F0.0 °F30.08 in10.0 miSW (230°)4.6 mphOvercast
5:15 AM0.0 °F0.0 °F30.08 in10.0 miWSW (240°)4.6 mphOvercast
5:35 AM0.0 °F0.0 °F30.09 in10.0 miSW (230°)4.6 mphOvercast
5:55 AM0.0 °F0.0 °F30.09 in10.0 miWSW (240°)4.6 mphOvercast
6:15 AM0.0 °F0.0 °F30.09 in10.0 miSW (230°)4.6 mphOvercast
6:35 AM0.0 °F0.0 °F30.10 in10.0 miSW (230°)5.8 mphOvercast
6:55 AM0.0 °F0.0 °F30.10 in10.0 miSW (220°)4.6 mphMostly Cloudy
7:15 AM0.0 °F0.0 °F30.10 in10.0 miSSW (210°)4.6 mphMostly Cloudy
7:35 AM0.0 °F0.0 °F30.11 in10.0 miSSW (210°)3.5 mphClear
7:55 AM0.0 °F0.0 °F30.11 in10.0 miSSW (210°)3.5 mphClear
8:15 AM0.0 °F0.0 °F30.12 in10.0 miSSW (210°)3.5 mphClear
8:35 AM0.0 °F0.0 °F30.12 in10.0 miSSW (210°)3.5 mphMostly Cloudy
8:55 AM0.0 °F0.0 °F30.12 in10.0 miSW (220°)4.6 mphMostly Cloudy
9:15 AM0.0 °F0.0 °F30.12 in10.0 miCalmScattered Clouds
9:35 AM0.0 °F0.0 °F30.12 in10.0 miSW (230°)3.5 mphScattered Clouds
9:55 AM0.0 °F0.0 °F30.13 in10.0 miSSW (200°)3.5 mphClear
10:15 AM0.0 °F0.0 °F30.13 in10.0 miWSW (240°)3.5 mphClear
10:35 AM0.0 °F0.0 °F30.12 in10.0 miWSW (250°)3.5 mphClear
10:55 AM0.0 °F0.0 °F30.12 in10.0 miCalmScattered Clouds
11:15 AM0.0 °F0.0 °F30.12 in10.0 miWNW (300°)4.6 mphClear
11:35 AM0.0 °F0.0 °F30.12 in10.0 miNW (320°)3.5 mphClear
11:55 AM0.0 °F0.0 °F30.12 in10.0 miWest (270°)4.6 mphClear
12:15 PM0.0 °F0.0 °F30.11 in10.0 miWNW (300°)3.5 mphClear
12:35 PM0.0 °F0.0 °F30.11 in10.0 miCalmClear
1:15 PM0.0 °F0.0 °F30.09 in10.0 miWSW (240°)4.6 mphOvercast
1:35 PM0.0 °F0.0 °F30.08 in10.0 miSW (220°)6.9 mphOvercast
1:55 PM0.0 °F0.0 °F30.07 in10.0 miSW (220°)4.6 mphOvercast
2:15 PM0.0 °F0.0 °F30.06 in10.0 miSSW (210°)4.6 mphMostly Cloudy
2:35 PM0.0 °F0.0 °F30.05 in10.0 miSW (220°)5.8 mphMostly Cloudy
2:55 PM0.0 °F0.0 °F30.04 in10.0 miCalmMostly Cloudy
3:15 PM0.0 °F0.0 °F30.03 in10.0 miCalmMostly Cloudy
3:35 PM0.0 °F0.0 °F30.03 in10.0 miSW (230°)8.1 mphOvercast
3:55 PM0.0 °F0.0 °F30.02 in10.0 miSW (220°)4.6 mphScattered Clouds
4:15 PM0.0 °F0.0 °F30.02 in10.0 miSSE (160°)3.5 mphScattered Clouds
4:35 PM0.0 °F0.0 °F30.01 in10.0 miSouth (190°)3.5 mphScattered Clouds
4:55 PM0.0 °F0.0 °F30.01 in10.0 miSW (220°)3.5 mphScattered Clouds
5:15 PM0.0 °F0.0 °F30.00 in10.0 miSSW (210°)4.6 mphScattered Clouds
5:35 PM0.0 °F0.0 °F30.00 in10.0 miSSW (200°)3.5 mphClear
5:55 PM0.0 °F0.0 °F30.00 in10.0 miSSE (160°)3.5 mphMostly Cloudy
6:15 PM0.0 °F0.0 °F30.00 in10.0 miSouth (180°)5.8 mphMostly Cloudy
6:35 PM0.0 °F0.0 °F30.00 in10.0 miSouth (170°)4.6 mphMostly Cloudy
6:55 PM0.0 °F0.0 °F30.00 in10.0 miCalmOvercast
7:15 PM0.0 °F0.0 °F30.00 in10.0 miSouth (170°)3.5 mphOvercast
7:35 PM0.0 °F0.0 °F30.00 in10.0 miSSE (160°)3.5 mphMostly Cloudy
7:55 PM0.0 °F0.0 °F30.00 in10.0 miSSE (150°)3.5 mphMostly Cloudy
8:15 PM0.0 °F0.0 °F30.00 in10.0 miSE (140°)3.5 mphScattered Clouds
8:35 PM0.0 °F0.0 °F30.00 in10.0 miSSE (150°)3.5 mphClear
8:55 PM0.0 °F0.0 °F29.99 in10.0 miSSE (150°)3.5 mphClear
9:15 PM0.0 °F0.0 °F29.98 in10.0 miSE (130°)3.5 mphClear
9:35 PM0.0 °F0.0 °F29.98 in10.0 miESE (120°)3.5 mphScattered Clouds
9:55 PM0.0 °F0.0 °F29.98 in10.0 miSE (140°)4.6 mphOvercast
10:15 PM0.0 °F0.0 °F29.98 in10.0 miSE (140°)3.5 mphOvercast
10:35 PM0.0 °F0.0 °F29.98 in10.0 miSE (130°)4.6 mphOvercast
10:55 PM0.0 °F0.0 °F29.99 in10.0 miSSE (150°)3.5 mphOvercast
11:15 PM0.0 °F0.0 °F29.99 in10.0 miSE (140°)3.5 mphOvercast
11:35 PM0.0 °F0.0 °F29.97 in10.0 miESE (120°)3.5 mphOvercast
11:55 PM0.0 °F0.0 °F29.96 in10.0 miSE (140°)3.5 mphOvercast
Hourly data recorded from K8A0, located miles away from Walnut Grove, Alabama







STORIES FROM OUR PARTNERS